FW7194 Weather Reports


Display with metric or nautical units.
time (UTC)temp
F
wind
direction
speed
MPH
gust
MPH
rain 1hr
in
rain 24hr
in
rain mn
in
humidity
%
barometer
mb
20260510172906 84 240 2.0 6.0 0.00 0.02 0.02 63 1014.2
20260510172402 84 217 4.0 6.0 0.00 0.02 0.02 62 1014.3
20260510171858 84 189 1.0 2.0 0.00 0.02 0.02 64 1014.4
20260510171356 84 246 2.0 3.0 0.00 0.02 0.02 63 1014.4
20260510170853 84 219 3.0 5.0 0.00 0.02 0.02 63 1014.5
20260510170349 84 214 1.0 3.0 0.00 0.02 0.02 62 1014.4
20260510165844 84 191 3.0 10.0 0.00 0.02 0.02 61 1014.4
20260510165341 83 206 5.0 7.0 0.00 0.02 0.02 62 1014.6
20260510164839 83 221 5.0 7.0 0.00 0.02 0.02 63 1014.5
20260510164335 83 204 3.0 5.0 0.00 0.02 0.02 64 1014.5
20260510163835 83 205 0.0 3.0 0.00 0.02 0.02 66 1014.5
20260510163331 82 262 3.0 6.0 0.00 0.02 0.02 67 1014.8
20260510162826 82 242 2.0 3.0 0.00 0.02 0.02 67 1014.8
20260510162323 82 247 2.0 7.0 0.00 0.02 0.02 66 1014.8
20260510161819 82 175 1.0 3.0 0.00 0.02 0.02 67 1014.8
20260510161314 82 232 2.0 3.0 0.00 0.02 0.02 69 1014.8
20260510160812 82 194 2.0 6.0 0.00 0.02 0.02 69 1014.8
20260510160308 82 193 7.0 9.0 0.00 0.02 0.02 69 1014.7
20260510155803 82 193 3.0 5.0 0.00 0.02 0.02 69 1014.7
20260510155259 81 184 0.0 5.0 0.00 0.02 0.02 69 1014.8
20260510154754 81 188 2.0 6.0 0.00 0.02 0.02 69 1014.7
20260510154252 81 203 3.0 7.0 0.00 0.02 0.02 69 1014.8
20260510153746 80 332 2.0 7.0 0.00 0.02 0.02 70 1014.9
20260510153242 81 160 4.0 6.0 0.00 0.02 0.02 73 1014.8
20260510152740 80 214 5.0 8.0 0.00 0.02 0.02 72 1014.8
20260510152236 80 104 4.0 6.0 0.00 0.02 0.02 70 1014.9
20260510151732 80 191 7.0 11.0 0.00 0.02 0.02 75 1014.9
20260510151231 79 257 3.0 7.0 0.00 0.02 0.02 75 1014.9
20260510150726 79 193 2.0 5.0 0.00 0.02 0.02 76 1014.7
20260510150222 78 189 1.0 7.0 0.00 0.02 0.02 74 1014.6
20260510145718 78 224 2.0 5.0 0.00 0.02 0.02 77 1014.6
20260510145215 78 189 2.0 2.0 0.00 0.02 0.02 77 1014.4
20260510144711 78 188 1.0 3.0 0.00 0.02 0.02 78 1014.6
20260510144208 77 161 1.0 5.0 0.00 0.02 0.02 80 1014.5
20260510143703 77 193 1.0 3.0 0.00 0.02 0.02 81 1014.4
20260510143200 77 202 0.0 3.0 0.00 0.02 0.02 81 1014.5
20260510142656 77 197 0.0 3.0 0.00 0.02 0.02 82 1014.6
20260510142152 77 181 2.0 9.0 0.00 0.02 0.02 82 1014.6
20260510141649 76 153 2.0 6.0 0.00 0.02 0.02 84 1014.5
20260510141148 75 163 0.0 5.0 0.00 0.02 0.02 84 1014.5
20260510140644 75 167 0.0 3.0 0.00 0.02 0.02 85 1014.2
20260510140143 75 162 1.0 3.0 0.00 0.02 0.02 85 1014.3
20260510135639 74 145 2.0 5.0 0.00 0.02 0.02 89 1014.2
20260510135135 73 229 2.0 5.0 0.00 0.02 0.02 90 1014.5
20260510134632 73 85 2.0 5.0 0.00 0.02 0.02 92 1014.2
20260510134129 72 122 2.0 2.0 0.00 0.02 0.02 94 1014.2
20260510133625 71 173 3.0 10.0 0.00 0.02 0.02 96 1014.4
20260510133121 70 162 0.0 0.0 0.00 0.02 0.02 97 1014.3
20260510132618 70 161 0.0 0.0 0.00 0.02 0.02 97 1014.4
20260510132115 69 268 1.0 2.0 0.00 0.02 0.02 97 1014.3
20260510131613 69 194 0.0 0.0 0.00 0.02 0.02 97 1014.2
20260510131110 69 329 0.0 0.0 0.00 0.02 0.02 98 1014.2
20260510130606 69 242 0.0 3.0 0.00 0.02 0.02 98 1014.4
20260510130104 68 109 0.0 0.0 0.00 0.02 0.02 97 1014.3
20260510125559 68 104 0.0 0.0 0.00 0.02 0.02 97 1014.3
20260510125056 68 101 0.0 1.0 0.00 0.02 0.02 97 1014.3
20260510124553 68 227 0.0 0.0 0.00 0.02 0.02 97 1014.4
20260510124050 68 219 0.0 2.0 0.00 0.02 0.02 97 1014.2
20260510123545 68 238 1.0 11.0 0.00 0.02 0.02 97 1014.5
20260510123041 68 256 0.0 0.0 0.00 0.02 0.02 97 1014.2
20260510122537 68 234 0.0 0.0 0.00 0.02 0.02 97 1014.1
20260510122033 67 155 0.0 0.0 0.00 0.02 0.02 97 1014.2
20260510121530 67 270 0.0 1.0 0.00 0.02 0.02 97 1014.3
20260510121027 67 219 0.0 0.0 0.00 0.02 0.02 97 1014.3
20260510120525 67 251 0.0 0.0 0.00 0.02 0.02 97 1014.0
20260510120021 67 217 0.0 0.0 0.00 0.02 0.02 97 1014.1
20260510115518 67 217 0.0 0.0 0.00 0.02 0.02 97 1013.8
20260510115014 67 226 0.0 0.0 0.00 0.02 0.02 97 1014.0
20260510114510 67 220 0.0 0.0 0.00 0.02 0.02 97 1013.9
20260510114007 67 213 0.0 3.0 0.00 0.02 0.02 96 1013.8
20260510113502 67 210 0.0 0.0 0.00 0.02 0.02 96 1013.9
20260510113000 67 209 0.0 0.0 0.00 0.02 0.02 96 1014.0
20260510112457 67 216 0.0 0.0 0.00 0.02 0.02 96 1014.0
20260510111953 67 192 0.0 0.0 0.00 0.02 0.02 96 1013.9
20260510111449 67 209 0.0 0.0 0.00 0.02 0.02 96 1013.7
20260510110945 67 211 0.0 0.0 0.00 0.02 0.02 96 1013.7
20260510110442 67 212 0.0 0.0 0.00 0.02 0.02 96 1013.3
20260510105938 67 215 0.0 0.0 0.00 0.02 0.02 96 1013.6
20260510105433 67 212 0.0 0.0 0.00 0.02 0.02 96 1013.5
20260510104929 67 210 0.0 0.0 0.00 0.02 0.02 96 1013.5
20260510104425 67 221 0.0 0.0 0.00 0.02 0.02 96 1013.5
20260510103922 67 226 0.0 0.0 0.00 0.02 0.02 96 1013.3
20260510103419 67 220 0.0 0.0 0.00 0.02 0.02 96 1013.3
20260510102914 67 206 0.0 0.0 0.00 0.02 0.02 96 1013.3
20260510102410 67 220 0.0 1.0 0.00 0.02 0.02 96 1013.1
20260510101908 67 195 0.0 0.0 0.00 0.02 0.02 95 1013.3
20260510101406 67 220 0.0 1.0 0.00 0.02 0.02 95 1013.2
20260510100902 67 225 0.0 0.0 0.00 0.02 0.02 95 1013.0
20260510100359 67 220 0.0 0.0 0.00 0.02 0.02 95 1012.9
20260510095856 67 220 0.0 0.0 0.00 0.02 0.02 95 1012.8
20260510095351 67 221 0.0 0.0 0.00 0.02 0.02 95 1012.7
20260510094850 67 227 0.0 0.0 0.00 0.02 0.02 95 1012.6
20260510094345 67 258 0.0 0.0 0.02 0.02 0.02 95 1012.6
20260510093842 67 225 0.0 0.0 0.02 0.02 0.02 95 1012.5
20260510093338 67 229 0.0 0.0 0.00 0.02 0.02 95 1012.4
20260510092834 67 210 0.0 0.0 0.00 0.02 0.02 95 1012.4
20260510092331 67 156 0.0 0.0 0.00 0.02 0.02 95 1012.6
20260510091826 67 219 0.0 0.0 0.00 0.02 0.02 94 1012.5
20260510091324 68 211 0.0 0.0 0.00 0.02 0.02 94 1012.7
20260510090820 68 224 0.0 0.0 0.00 0.02 0.02 94 1012.5
20260510090317 68 219 0.0 0.0 0.00 0.02 0.02 94 1012.6
20260510085813 68 218 0.0 0.0 0.00 0.02 0.02 94 1012.5
20260510085313 68 214 0.0 0.0 0.00 0.02 0.02 94 1012.4
20260510084809 68 207 0.0 0.0 0.00 0.02 0.02 94 1012.4
20260510084306 68 209 0.0 0.0 0.00 0.02 0.02 94 1012.6
20260510083803 68 210 0.0 0.0 0.00 0.02 0.02 94 1012.4
20260510083300 68 208 0.0 0.0 0.00 0.02 0.02 93 1012.1
20260510082755 68 208 0.0 0.0 0.02 0.02 0.02 93 1012.0
20260510082252 68 208 0.0 0.0 0.02 0.02 0.02 93 1012.0
20260510081750 68 223 0.0 0.0 0.05 0.02 0.02 93 1012.1
20260510081247 68 141 0.0 0.0 0.02 0.01 0.01 93 1012.2
20260510080743 68 204 0.0 1.0 0.02 0.01 0.01 93 1012.2
20260510080238 68 222 0.0 1.0 0.05 0.01 0.01 92 1012.2
20260510075735 68 228 1.0 2.0 0.02 0.00 0.00 92 1012.2
20260510075233 68 197 0.0 1.0 0.00 0.00 0.00 92 1012.4
20260510074730 68 156 1.0 2.0 0.00 0.00 0.00 92 1012.2
20260510074226 69 199 0.0 0.0 0.00 0.00 0.00 92 1012.4
20260510073722 69 224 0.0 0.0 0.00 0.00 0.00 92 1012.3
20260510073218 69 234 0.0 6.0 0.00 0.00 0.00 92 1012.3
20260510072714 69 189 2.0 3.0 0.00 0.00 0.00 92 1011.8
20260510072211 69 206 0.0 2.0 0.00 0.00 0.00 92 1012.1
20260510071708 69 225 0.0 1.0 0.00 0.00 0.00 92 1012.1
20260510071204 69 212 0.0 1.0 0.00 0.00 0.00 92 1012.0
20260510070702 69 221 0.0 2.0 0.00 0.00 0.00 92 1011.8
20260510070159 69 206 0.0 2.0 0.00 0.00 0.00 92 1011.6
20260510065655 69 215 0.0 2.0 0.00 0.00 0.00 92 1011.7
20260510065151 69 222 1.0 2.0 0.00 0.00 0.00 92 1011.9
20260510064648 69 232 2.0 2.0 0.00 0.00 0.00 92 1011.8
20260510064144 69 204 0.0 2.0 0.00 0.00 0.00 92 1012.1
20260510063642 69 225 0.0 1.0 0.00 0.00 0.00 92 1012.2
20260510063138 69 175 0.0 0.0 0.00 0.00 0.00 92 1012.1
20260510062635 69 243 0.0 2.0 0.00 0.00 0.00 92 1012.4
20260510062131 69 170 3.0 5.0 0.00 0.00 0.00 92 1012.2
20260510061626 69 248 2.0 3.0 0.00 0.00 0.00 92 1012.1
20260510061123 69 191 2.0 9.0 0.00 0.00 0.00 91 1012.3
20260510060614 69 227 2.0 3.0 0.00 0.00 0.00 91 1012.4
20260510060111 69 215 0.0 0.0 0.00 0.00 0.00 91 1012.1
20260510055607 69 211 0.0 1.0 0.00 0.00 0.00 91 1012.3
20260510055105 69 36 0.0 0.0 0.00 0.00 0.00 91 1012.4
20260510054600 69 242 1.0 3.0 0.00 0.00 0.00 91 1012.3
20260510054056 69 243 0.0 1.0 0.00 0.00 0.00 91 1012.6
20260510053555 69 236 1.0 7.0 0.00 0.00 0.00 91 1012.2
20260510053052 69 203 0.0 5.0 0.00 0.00 0.00 90 1012.1
20260510052548 69 201 0.0 3.0 0.00 0.00 0.00 90 1012.2
20260510052044 69 222 0.0 3.0 0.00 0.00 0.00 90 1012.2
20260510051540 69 208 0.0 0.0 0.00 0.00 0.00 90 1012.4
20260510051037 69 199 3.0 5.0 0.00 0.00 0.00 90 1012.3
20260510050534 69 224 0.0 0.0 0.00 0.00 0.00 90 1012.4
20260510050031 69 216 0.0 0.0 0.00 0.00 0.00 90 1012.1
20260510045528 69 208 0.0 0.0 0.00 0.00 0.00 90 1012.1
20260510045024 69 224 2.0 3.0 0.00 0.00 0.00 90 1012.1
20260510044521 69 195 3.0 5.0 0.00 0.00 0.00 90 1012.2
20260510044019 69 211 0.0 6.0 0.00 0.00 0.00 90 1012.0
20260510043514 69 215 0.0 0.0 0.00 0.00 0.00 90 1012.2
20260510043009 70 194 1.0 1.0 0.00 0.00 0.00 89 1012.0
20260510042504 70 226 0.0 2.0 0.00 0.00 0.00 89 1012.0
20260510041959 70 225 0.0 3.0 0.00 0.00 0.00 89 1011.8
20260510041456 70 271 3.0 3.0 0.00 0.00 0.00 89 1012.1
20260510040954 70 213 2.0 2.0 0.00 0.00 0.00 89 1012.0
20260510040450 70 240 0.0 5.0 0.00 0.00 0.00 89 1011.8
20260510035946 70 250 1.0 5.0 0.00 0.00 0.00 89 1011.9
20260510035442 70 239 2.0 5.0 0.00 0.00 0.00 89 1011.8
20260510034942 70 204 0.0 1.0 0.00 0.00 0.00 88 1012.0
20260510034442 70 231 2.0 9.0 0.00 0.00 0.00 88 1011.8
20260510033937 70 230 0.0 1.0 0.00 0.00 0.00 88 1011.8
20260510033433 70 205 1.0 6.0 0.00 0.00 0.00 88 1011.7
20260510032931 70 208 0.0 0.0 0.00 0.00 0.00 88 1011.9
20260510032427 70 222 0.0 5.0 0.00 0.00 0.00 88 1011.8
20260510031922 70 186 2.0 3.0 0.00 0.00 0.00 87 1011.8
20260510031418 71 221 0.0 2.0 0.00 0.00 0.00 87 1012.0
20260510030913 71 201 0.0 3.0 0.00 0.00 0.00 87 1011.8
20260510030410 71 242 2.0 3.0 0.00 0.00 0.00 87 1011.8
20260510025908 71 229 0.0 5.0 0.00 0.00 0.00 87 1011.6
20260510025405 71 221 0.0 3.0 0.00 0.00 0.00 87 1011.6
20260510024902 71 228 4.0 5.0 0.00 0.00 0.00 86 1011.6
20260510024358 71 212 0.0 6.0 0.00 0.00 0.00 86 1011.5
20260510023854 71 213 0.0 3.0 0.00 0.00 0.00 86 1011.4
20260510023350 71 204 0.0 5.0 0.00 0.00 0.00 86 1011.5
20260510022848 71 208 2.0 8.0 0.00 0.00 0.00 86 1011.4
20260510022347 72 219 2.0 5.0 0.00 0.00 0.00 86 1011.4
20260510021846 72 285 4.0 6.0 0.00 0.00 0.00 86 1011.5
20260510021344 72 208 4.0 8.0 0.00 0.00 0.00 86 1011.4
20260510020841 72 213 0.0 7.0 0.00 0.00 0.00 86 1011.4
20260510020340 72 192 2.0 9.0 0.00 0.00 0.00 86 1011.4
20260510015836 72 215 0.0 5.0 0.00 0.00 0.00 86 1011.6
20260510015332 72 184 1.0 2.0 0.00 0.00 0.00 86 1011.3
20260510014828 72 226 6.0 7.0 0.00 0.00 0.00 86 1011.2
20260510014326 72 208 1.0 6.0 0.00 0.00 0.00 86 1011.2
20260510013821 73 187 4.0 5.0 0.00 0.00 0.00 86 1011.2
20260510013317 73 186 2.0 5.0 0.00 0.00 0.00 86 1011.3
20260510012812 73 207 3.0 5.0 0.00 0.00 0.00 85 1010.8
20260510012312 73 225 1.0 5.0 0.00 0.00 0.00 85 1010.9
20260510011807 73 205 2.0 5.0 0.00 0.00 0.00 85 1010.9
20260510011303 73 203 5.0 7.0 0.00 0.00 0.00 85 1010.7
20260510010800 73 231 3.0 3.0 0.00 0.00 0.00 85 1010.6
20260510010256 73 226 2.0 3.0 0.00 0.00 0.00 85 1010.5
20260510005753 73 216 1.0 2.0 0.00 0.00 0.00 85 1010.6
20260510005249 73 222 0.0 5.0 0.00 0.00 0.00 84 1010.4
20260510004748 73 191 2.0 6.0 0.00 0.00 0.00 84 1010.5
20260510004245 73 221 3.0 6.0 0.00 0.00 0.00 84 1010.6
20260510003742 74 228 0.0 0.0 0.00 0.00 0.00 84 1010.8
20260510003238 74 230 0.0 0.0 0.00 0.00 0.00 84 1010.7
20260510002737 74 202 0.0 3.0 0.00 0.00 0.00 84 1010.4
20260510002234 74 216 0.0 0.0 0.00 0.00 0.00 84 1010.4
20260510001731 74 208 0.0 1.0 0.00 0.00 0.00 83 1010.3
20260510001230 74 245 0.0 1.0 0.00 0.00 0.00 83 1010.2
20260510000725 74 218 0.0 3.0 0.00 0.00 0.00 83 1010.0
20260510000223 75 216 3.0 5.0 0.00 0.00 0.00 83 1009.9
20260509235720 75 295 1.0 2.0 0.00 0.00 0.00 83 1010.3
20260509235216 75 212 2.0 7.0 0.00 0.00 0.00 83 1009.9
20260509234712 75 219 1.0 5.0 0.00 0.00 0.00 83 1009.9
20260509234209 75 199 5.0 7.0 0.00 0.00 0.00 83 1009.9
20260509233707 75 227 1.0 3.0 0.00 0.00 0.00 83 1010.0
20260509233205 75 241 2.0 5.0 0.00 0.00 0.00 82 1009.9
20260509232701 75 218 0.0 2.0 0.00 0.00 0.00 82 1009.7
20260509232158 75 214 0.0 0.0 0.00 0.00 0.00 82 1009.8
20260509231654 75 236 1.0 2.0 0.00 0.00 0.00 82 1009.8
20260509231152 76 167 3.0 5.0 0.00 0.00 0.00 82 1009.8
20260509230649 76 194 2.0 5.0 0.00 0.00 0.00 82 1009.9
20260509230146 76 220 3.0 7.0 0.00 0.00 0.00 82 1009.7
20260509225642 76 211 1.0 3.0 0.00 0.00 0.00 82 1009.9
20260509225137 76 239 2.0 5.0 0.00 0.00 0.00 82 1010.0
20260509224633 76 209 1.0 5.0 0.00 0.00 0.00 82 1009.7
20260509224130 76 234 0.0 3.0 0.00 0.00 0.00 81 1009.6
20260509223626 76 202 2.0 3.0 0.00 0.00 0.00 82 1009.7
20260509223124 76 209 3.0 6.0 0.00 0.00 0.00 82 1009.9
20260509222620 76 191 0.0 2.0 0.00 0.00 0.00 82 1009.7
20260509222116 76 211 3.0 5.0 0.00 0.00 0.00 81 1009.7
20260509221611 77 276 1.0 2.0 0.00 0.00 0.00 81 1009.8
20260509221108 77 289 2.0 6.0 0.00 0.00 0.00 81 1009.9
20260509220604 77 131 2.0 6.0 0.00 0.00 0.00 81 1009.8
20260509220101 77 257 3.0 14.0 0.00 0.00 0.00 81 1010.0
20260509215556 77 239 0.0 7.0 0.00 0.00 0.00 82 1010.0
20260509215054 77 267 5.0 11.0 0.00 0.00 0.00 82 1009.8
20260509214551 77 225 2.0 14.0 0.00 0.00 0.00 81 1009.6
20260509214047 77 183 6.0 10.0 0.00 0.00 0.00 82 1009.7
20260509213543 77 171 1.0 5.0 0.00 0.00 0.00 82 1009.7
20260509213040 77 210 7.0 8.0 0.00 0.00 0.00 82 1009.9
20260509212537 77 196 1.0 3.0 0.00 0.00 0.00 82 1009.6
20260509212034 77 267 1.0 3.0 0.00 0.00 0.00 81 1009.6
20260509211529 77 248 4.0 7.0 0.00 0.00 0.00 81 1009.6
20260509211021 77 168 3.0 7.0 0.00 0.00 0.00 81 1009.4
20260509210518 77 196 3.0 6.0 0.00 0.00 0.00 81 1009.3
20260509210014 77 219 5.0 7.0 0.00 0.00 0.00 80 1009.3
20260509205509 77 217 3.0 7.0 0.00 0.00 0.00 80 1009.4
20260509205005 77 214 2.0 3.0 0.00 0.00 0.00 80 1009.5
20260509204500 78 241 5.0 7.0 0.00 0.00 0.00 80 1009.8
20260509203957 78 227 4.0 10.0 0.00 0.00 0.00 80 1009.6
20260509203453 78 250 2.0 7.0 0.00 0.00 0.00 80 1009.8
20260509202951 78 204 3.0 5.0 0.00 0.00 0.00 80 1009.9
20260509202447 78 203 5.0 10.0 0.00 0.00 0.00 79 1010.0
20260509201942 78 201 8.0 9.0 0.00 0.00 0.00 79 1009.8
20260509201437 78 192 6.0 7.0 0.00 0.00 0.00 80 1010.0
20260509200935 78 194 4.0 7.0 0.00 0.00 0.00 80 1010.0
20260509200434 78 209 3.0 8.0 0.00 0.00 0.00 79 1009.9
20260509195931 78 223 5.0 6.0 0.00 0.00 0.00 80 1010.0
20260509195421 78 208 3.0 6.0 0.00 0.00 0.00 79 1009.8
20260509194920 78 230 4.0 7.0 0.00 0.00 0.00 79 1009.8
20260509194417 78 176 3.0 6.0 0.00 0.00 0.00 79 1009.7
20260509193914 78 187 6.0 8.0 0.00 0.00 0.00 79 1009.7
20260509193413 78 202 4.0 7.0 0.00 0.00 0.00 78 1009.8
20260509192909 78 201 2.0 6.0 0.00 0.00 0.00 78 1010.0
20260509192406 78 188 1.0 5.0 0.00 0.00 0.00 79 1010.1
20260509191901 79 232 2.0 2.0 0.00 0.00 0.00 79 1010.3
20260509191357 79 195 0.0 2.0 0.00 0.00 0.00 78 1010.2
20260509190853 79 201 5.0 7.0 0.00 0.00 0.00 78 1010.2
20260509190350 79 211 0.0 2.0 0.00 0.00 0.00 77 1010.1
20260509185848 79 223 0.0 3.0 0.00 0.00 0.00 77 1010.2
20260509185344 79 188 2.0 3.0 0.00 0.00 0.00 77 1010.2
20260509184842 79 199 1.0 13.0 0.00 0.00 0.00 75 1010.4
20260509184338 79 245 1.0 5.0 0.00 0.00 0.00 76 1010.5
20260509183835 79 201 6.0 8.0 0.00 0.00 0.00 74 1010.4
20260509183330 79 188 3.0 5.0 0.00 0.00 0.00 75 1010.3
20260509182826 79 214 1.0 6.0 0.00 0.00 0.00 74 1010.3
20260509182324 79 218 1.0 5.0 0.00 0.00 0.00 74 1010.4
20260509181821 79 209 8.0 15.0 0.00 0.00 0.00 72 1010.2
20260509181318 79 196 6.0 16.0 0.00 0.00 0.00 74 1010.2
20260509180815 79 177 5.0 7.0 0.00 0.00 0.00 74 1010.2
20260509180311 78 131 3.0 5.0 0.00 0.00 0.00 75 1010.5
20260509175808 78 235 5.0 9.0 0.00 0.00 0.00 76 1010.5
20260509175306 78 195 2.0 5.0 0.00 0.00 0.00 76 1010.5
20260509174801 77 219 4.0 6.0 0.00 0.00 0.00 75 1010.7
20260509174256 77 220 2.0 5.0 0.00 0.00 0.00 76 1010.8
20260509173752 77 206 4.0 8.0 0.00 0.00 0.00 75 1010.5
20260509173248 77 204 6.0 8.0 0.00 0.00 0.00 74 1010.6